Location: Elstree
(51.6403°N, 0.2969°W)
Time: 19:39:39
(UTC+00:00)

Terra - Pass Details

Date: 21 June 2021
Orbit: 701 x 703 km, 98.2° (Epoch: 24 July)

Event Time Altitude Azimuth Distance (km) Brightness Sun altitude
Exits shadow 23:03:09 - 217° (SW) 2,413 4.2 -13.8°
Reaches altitude 10° 23:03:58 10° 223° (SW) 2,170 4.0 -13.8°
Maximum altitude 23:07:26 20° 270° (W) 1,613 3.8 -13.9°
Drops below altitude 10° 23:10:55 10° 317° (NW) 2,182 5.3 -14.1°
Sets 23:13:46 0° 335° (NNW) 3,106 6.8 -14.1°
